• en France
  • Liste des pays
  • À 7 jours
  • Température de l'eau
  • Carte satellitaire
  • Carte météo
  • Widgets météo
  • user-avatar
    Se connecter

    Météo par heure à Hamhŭng

    Ce jour, 20 Août, Lundi

    Heure Température Précipitation Vent Pression Humidité
    00:00 +24°C° 0,1 mm 1 m/s 755 mmHg 96%
    01:00 +24°C° 0,4 mm 1 m/s 755 mmHg 96%
    02:00 +24°C° 0,4 mm 1 m/s 755 mmHg 96%
    03:00 +24°C° 0 mm 1 m/s 755 mmHg 95%
    04:00 +24°C° 0,3 mm 1 m/s 755 mmHg 95%
    05:00 +23°C° 0,3 mm 1 m/s 755 mmHg 96%
    06:00 +23°C° 0,3 mm 1 m/s 754 mmHg 96%
    07:00 +24°C° 0 mm 1 m/s 754 mmHg 93%
    08:00 +25°C° 0 mm 1 m/s 754 mmHg 90%
    09:00 +26°C° 0 mm 1 m/s 754 mmHg 87%
    10:00 +27°C° 0,1 mm 2 m/s 754 mmHg 86%
    11:00 +27°C° 0,1 mm 2 m/s 753 mmHg 84%
    12:00 +27°C° 0,1 mm 2 m/s 753 mmHg 82%
    13:00 +27°C° 0,1 mm 3 m/s 752 mmHg 83%
    14:00 +27°C° 0,1 mm 3 m/s 752 mmHg 84%
    15:00 +27°C° 0,1 mm 3 m/s 751 mmHg 85%
    16:00 +26°C° 0,2 mm 3 m/s 751 mmHg 87%
    17:00 +25°C° 0,2 mm 4 m/s 750 mmHg 90%
    18:00 +25°C° 0,2 mm 4 m/s 750 mmHg 93%
    19:00 +23°C° 1,2 mm 4 m/s 750 mmHg 94%
    20:00 +23°C° 1,2 mm 4 m/s 750 mmHg 95%
    21:00 +23°C° 1,2 mm 4 m/s 749 mmHg 96%
    22:00 +24°C° 2,4 mm 3 m/s 749 mmHg 96%
    23:00 +24°C° 2,4 mm 3 m/s 748 mmHg 97%

    Demain, 21 Août, Mardi

    Heure Température Précipitation Vent Pression Humidité
    00:00 +24°C° 2,4 mm 2 m/s 748 mmHg 97%
    01:00 +24°C° 2,8 mm 2 m/s 748 mmHg 97%
    02:00 +24°C° 2,8 mm 2 m/s 747 mmHg 97%
    03:00 +25°C° 2,8 mm 2 m/s 747 mmHg 98%
    04:00 +25°C° 0,7 mm 2 m/s 746 mmHg 97%
    05:00 +25°C° 0,7 mm 2 m/s 746 mmHg 97%
    06:00 +25°C° 0,7 mm 2 m/s 746 mmHg 97%
    07:00 +26°C° 0,3 mm 2 m/s 746 mmHg 97%
    08:00 +26°C° 0,3 mm 2 m/s 747 mmHg 97%
    09:00 +26°C° 0,3 mm 2 m/s 747 mmHg 97%
    10:00 +27°C° 0,2 mm 2 m/s 747 mmHg 93%
    11:00 +28°C° 0,2 mm 3 m/s 747 mmHg 90%
    12:00 +29°C° 0,2 mm 3 m/s 748 mmHg 87%
    13:00 +31°C° 0 mm 3 m/s 748 mmHg 78%
    14:00 +33°C° 0 mm 3 m/s 748 mmHg 69%
    15:00 +35°C° 0 mm 3 m/s 748 mmHg 60%
    16:00 +34°C° 0 mm 3 m/s 748 mmHg 64%
    17:00 +33°C° 0 mm 3 m/s 748 mmHg 68%
    18:00 +33°C° 0 mm 3 m/s 748 mmHg 72%
    19:00 +30°C° 0 mm 3 m/s 749 mmHg 77%
    20:00 +28°C° 0 mm 3 m/s 749 mmHg 83%
    21:00 +26°C° 0 mm 3 m/s 750 mmHg 88%
    22:00 +25°C° 0 mm 3 m/s 750 mmHg 88%
    23:00 +25°C° 0 mm 3 m/s 751 mmHg 87%

    Après-demain, 22 Août, Mercredi

    Heure Température Précipitation Vent Pression Humidité
    00:00 +24°C° 0 mm 3 m/s 751 mmHg 87%
    01:00 +24°C° 0 mm 2 m/s 751 mmHg 86%
    02:00 +24°C° 0 mm 2 m/s 751 mmHg 86%
    03:00 +24°C° 0 mm 2 m/s 751 mmHg 85%
    04:00 +24°C° 0 mm 2 m/s 751 mmHg 84%
    05:00 +24°C° 0 mm 2 m/s 751 mmHg 83%
    06:00 +23°C° 0 mm 2 m/s 752 mmHg 82%
    07:00 +26°C° 0 mm 1 m/s 752 mmHg 75%
    08:00 +28°C° 0 mm 1 m/s 752 mmHg 68%
    09:00 +31°C° 0 mm 1 m/s 752 mmHg 60%
    10:00 +31°C° 0 mm 1 m/s 752 mmHg 57%
    11:00 +32°C° 0 mm 2 m/s 752 mmHg 53%
    12:00 +34°C° 0 mm 2 m/s 753 mmHg 50%
    13:00 +34°C° 0 mm 3 m/s 752 mmHg 52%
    14:00 +34°C° 0 mm 3 m/s 752 mmHg 53%
    15:00 +34°C° 0 mm 3 m/s 751 mmHg 55%
    16:00 +33°C° 0 mm 3 m/s 751 mmHg 63%
    17:00 +31°C° 0 mm 2 m/s 751 mmHg 71%
    18:00 +30°C° 0 mm 2 m/s 751 mmHg 79%
    19:00 +28°C° 0 mm 2 m/s 752 mmHg 85%
    20:00 +27°C° 0 mm 2 m/s 752 mmHg 90%
    21:00 +25°C° 0 mm 2 m/s 753 mmHg 96%
    22:00 +25°C° 0,4 mm 2 m/s 753 mmHg 94%
    23:00 +25°C° 0,4 mm 2 m/s 753 mmHg 93%

    23 Août, Jeudi

    Heure Température Précipitation Vent Pression Humidité
    00:00 +25°C° 0,4 mm 2 m/s 753 mmHg 91%
    01:00 +25°C° 1,3 mm 3 m/s 752 mmHg 91%
    02:00 +25°C° 1,3 mm 3 m/s 752 mmHg 90%
    03:00 +25°C° 1,3 mm 3 m/s 752 mmHg 89%
    04:00 +25°C° 2,4 mm 3 m/s 752 mmHg 91%
    05:00 +25°C° 2,4 mm 3 m/s 751 mmHg 92%
    06:00 +25°C° 2,4 mm 3 m/s 751 mmHg 94%
    07:00 +25°C° 2,2 mm 3 m/s 751 mmHg 94%
    08:00 +26°C° 2,2 mm 3 m/s 751 mmHg 94%
    09:00 +26°C° 2,2 mm 3 m/s 751 mmHg 94%
    10:00 +27°C° 1,2 mm 4 m/s 750 mmHg 93%
    11:00 +27°C° 1,2 mm 4 m/s 750 mmHg 93%
    12:00 +28°C° 1,2 mm 4 m/s 750 mmHg 92%
    13:00 +27°C° 1,5 mm 4 m/s 749 mmHg 93%
    14:00 +27°C° 1,5 mm 5 m/s 749 mmHg 95%
    15:00 +27°C° 1,5 mm 5 m/s 748 mmHg 97%
    16:00 +27°C° 1,2 mm 5 m/s 748 mmHg 97%
    17:00 +27°C° 1,2 mm 5 m/s 747 mmHg 96%
    18:00 +27°C° 1,2 mm 5 m/s 747 mmHg 96%
    19:00 +26°C° 0,8 mm 6 m/s 747 mmHg 96%
    20:00 +26°C° 0,8 mm 6 m/s 746 mmHg 96%
    21:00 +26°C° 0,8 mm 7 m/s 746 mmHg 96%
    22:00 +26°C° 1,6 mm 7 m/s 745 mmHg 96%
    23:00 +26°C° 1,6 mm 7 m/s 745 mmHg 96%

    24 Août, Vendredi

    Heure Température Précipitation Vent Pression Humidité
    00:00 +26°C° 1,6 mm 7 m/s 744 mmHg 95%
    01:00 +26°C° 0,8 mm 8 m/s 743 mmHg 95%
    02:00 +26°C° 0,8 mm 8 m/s 741 mmHg 94%
    03:00 +24°C° 0,8 mm 8 m/s 740 mmHg 93%
    04:00 +24°C° 0,5 mm 9 m/s 739 mmHg 92%
    05:00 +24°C° 0,5 mm 9 m/s 738 mmHg 91%
    06:00 +24°C° 0,5 mm 10 m/s 737 mmHg 91%
    07:00 +24°C° 5 mm 10 m/s 736 mmHg 91%
    08:00 +24°C° 5 mm 10 m/s 736 mmHg 92%
    09:00 +26°C° 5 mm 10 m/s 735 mmHg 93%
    10:00 +26°C° 7,6 mm 9 m/s 736 mmHg 93%
    11:00 +26°C° 7,6 mm 8 m/s 736 mmHg 94%
    12:00 +26°C° 7,6 mm 7 m/s 736 mmHg 94%
    13:00 +26°C° 1,7 mm 6 m/s 737 mmHg 94%
    14:00 +26°C° 1,7 mm 5 m/s 737 mmHg 94%
    15:00 +26°C° 1,7 mm 5 m/s 738 mmHg 94%
    16:00 +26°C° 0,2 mm 4 m/s 739 mmHg 93%
    17:00 +26°C° 0,2 mm 4 m/s 740 mmHg 93%
    18:00 +26°C° 0,2 mm 3 m/s 740 mmHg 93%
    19:00 +26°C° 0 mm 3 m/s 741 mmHg 93%
    20:00 +25°C° 0 mm 4 m/s 742 mmHg 94%
    21:00 +25°C° 0 mm 4 m/s 743 mmHg 94%
    22:00 +23°C° 0 mm 4 m/s 743 mmHg 94%
    23:00 +23°C° 0 mm 4 m/s 743 mmHg 94%

    25 Août, Samedi

    Heure Température Précipitation Vent Pression Humidité
    00:00 +23°C° 0 mm 4 m/s 743 mmHg 94%
    01:00 +22°C° 0 mm 4 m/s 743 mmHg 94%
    02:00 +22°C° 0 mm 4 m/s 743 mmHg 94%
    03:00 +22°C° 0 mm 4 m/s 744 mmHg 94%
    04:00 +22°C° 0 mm 4 m/s 744 mmHg 94%
    05:00 +21°C° 0 mm 5 m/s 745 mmHg 94%
    06:00 +21°C° 0 mm 5 m/s 745 mmHg 93%
    07:00 +22°C° 0 mm 5 m/s 746 mmHg 91%
    08:00 +22°C° 0 mm 5 m/s 746 mmHg 88%
    09:00 +23°C° 0 mm 6 m/s 746 mmHg 86%
    10:00 +24°C° 0 mm 6 m/s 747 mmHg 83%
    11:00 +24°C° 0 mm 6 m/s 747 mmHg 80%
    12:00 +26°C° 0 mm 7 m/s 747 mmHg 77%
    13:00 +26°C° 0,1 mm 6 m/s 747 mmHg 77%
    14:00 +26°C° 0,1 mm 6 m/s 747 mmHg 77%
    15:00 +26°C° 0,1 mm 6 m/s 747 mmHg 77%
    16:00 +24°C° 0 mm 6 m/s 747 mmHg 79%
    17:00 +25°C° 0 mm 5 m/s 748 mmHg 81%
    18:00 +25°C° 0 mm 5 m/s 748 mmHg 83%
    19:00 +23°C° 0 mm 5 m/s 748 mmHg 85%
    20:00 +22°C° 0 mm 5 m/s 749 mmHg 88%
    21:00 +21°C° 0 mm 4 m/s 750 mmHg 90%
    22:00 +21°C° 0 mm 4 m/s 750 mmHg 91%
    23:00 +20°C° 0 mm 4 m/s 750 mmHg 91%
    Voir plus